| time (UTC) | temp F | wind direction | speed MPH | gust MPH | rain 1hr in | rain 24hr in | rain mn in | humidity % | barometer mb |
| 20260504080657 | 54 | 224 | 4.0 | 10.0 | 0.00 | 0.00 | 0.00 | 71 | 1006.7 |
| 20260504080132 | 53 | 197 | 4.0 | 10.0 | 0.00 | 0.00 | 0.00 | 71 | 1006.7 |
| 20260504060144 | 53 | 217 | 5.0 | 11.0 | 0.00 | 0.00 | 0.00 | 69 | 1008.2 |
| 20260504050322 | 53 | 192 | 5.0 | 8.0 | 0.00 | 0.00 | 0.00 | 73 | 1009.1 |
| 20260504045821 | 53 | 202 | 5.0 | 11.0 | 0.00 | 0.00 | 0.00 | 73 | 1009.2 |
| 20260504045316 | 53 | 215 | 5.0 | 11.0 | 0.00 | 0.00 | 0.00 | 73 | 1009.2 |
| 20260504044748 | 52 | 205 | 4.0 | 8.0 | 0.00 | 0.00 | 0.00 | 73 | 1009.2 |
| 20260504044246 | 52 | 173 | 4.0 | 7.0 | 0.00 | 0.00 | 0.00 | 73 | 1009.4 |
| 20260504043738 | 52 | 215 | 4.0 | 8.0 | 0.00 | 0.00 | 0.00 | 73 | 1009.4 |
| 20260504043232 | 52 | 205 | 4.0 | 9.0 | 0.00 | 0.00 | 0.00 | 74 | 1009.3 |
| 20260504042729 | 52 | 209 | 4.0 | 9.0 | 0.00 | 0.00 | 0.00 | 75 | 1009.4 |
| 20260504042226 | 52 | 201 | 5.0 | 9.0 | 0.00 | 0.00 | 0.00 | 75 | 1009.4 |
| 20260504041659 | 52 | 208 | 5.0 | 9.0 | 0.00 | 0.00 | 0.00 | 76 | 1009.5 |
| 20260504041158 | 52 | 248 | 5.0 | 10.0 | 0.00 | 0.00 | 0.00 | 76 | 1009.5 |
| 20260504040629 | 52 | 198 | 5.0 | 10.0 | 0.00 | 0.00 | 0.00 | 76 | 1009.6 |
| 20260504040125 | 52 | 196 | 5.0 | 9.0 | 0.00 | 0.00 | 0.00 | 77 | 1009.8 |
| 20260504035626 | 52 | 219 | 4.0 | 9.0 | 0.00 | 0.00 | 0.00 | 77 | 1009.9 |
| 20260504035126 | 52 | 227 | 5.0 | 9.0 | 0.00 | 0.00 | 0.00 | 76 | 1009.9 |
| 20260504034611 | 52 | 223 | 5.0 | 9.0 | 0.00 | 0.00 | 0.00 | 77 | 1010.0 |
| 20260504034109 | 52 | 199 | 5.0 | 9.0 | 0.00 | 0.00 | 0.00 | 77 | 1010.1 |
| 20260504033608 | 52 | 201 | 5.0 | 9.0 | 0.00 | 0.00 | 0.00 | 77 | 1010.1 |
| 20260504033108 | 52 | 214 | 5.0 | 9.0 | 0.00 | 0.00 | 0.00 | 77 | 1010.1 |
| 20260504032608 | 52 | 196 | 4.0 | 8.0 | 0.00 | 0.00 | 0.00 | 76 | 1010.1 |
| 20260504032105 | 52 | 187 | 4.0 | 9.0 | 0.00 | 0.00 | 0.00 | 76 | 1010.1 |
| 20260504031606 | 52 | 188 | 4.0 | 9.0 | 0.00 | 0.00 | 0.00 | 75 | 1010.2 |
| 20260504031102 | 52 | 202 | 4.0 | 8.0 | 0.00 | 0.00 | 0.00 | 76 | 1010.2 |
| 20260504030607 | 52 | 204 | 4.0 | 8.0 | 0.00 | 0.00 | 0.00 | 75 | 1010.4 |
| 20260504030029 | 52 | 169 | 4.0 | 8.0 | 0.00 | 0.00 | 0.00 | 75 | 1010.5 |
| 20260504025539 | 52 | 215 | 4.0 | 8.0 | 0.00 | 0.00 | 0.00 | 75 | 1010.5 |
| 20260504025028 | 53 | 196 | 4.0 | 8.0 | 0.00 | 0.00 | 0.00 | 74 | 1010.6 |
| 20260504024510 | 53 | 200 | 4.0 | 8.0 | 0.00 | 0.00 | 0.00 | 74 | 1010.5 |
| 20260504023934 | 53 | 205 | 4.0 | 8.0 | 0.00 | 0.00 | 0.00 | 73 | 1010.6 |
| 20260504023431 | 53 | 208 | 3.0 | 9.0 | 0.00 | 0.00 | 0.00 | 73 | 1010.6 |
| 20260504022929 | 53 | 211 | 3.0 | 9.0 | 0.00 | 0.00 | 0.00 | 73 | 1010.6 |
| 20260504022425 | 53 | 199 | 3.0 | 7.0 | 0.00 | 0.00 | 0.00 | 72 | 1010.6 |
| 20260504021921 | 53 | 182 | 4.0 | 6.0 | 0.00 | 0.00 | 0.00 | 72 | 1010.7 |
| 20260504021355 | 53 | 207 | 4.0 | 9.0 | 0.00 | 0.00 | 0.00 | 72 | 1010.6 |
| 20260504020830 | 53 | 209 | 4.0 | 9.0 | 0.00 | 0.00 | 0.00 | 71 | 1010.6 |
| 20260504020327 | 53 | 192 | 3.0 | 9.0 | 0.00 | 0.00 | 0.00 | 71 | 1010.7 |
| 20260504015823 | 53 | 213 | 3.0 | 9.0 | 0.00 | 0.00 | 0.00 | 70 | 1010.7 |
| 20260504015319 | 53 | 190 | 3.0 | 8.0 | 0.00 | 0.00 | 0.00 | 71 | 1010.7 |
| 20260504014753 | 53 | 217 | 3.0 | 7.0 | 0.00 | 0.00 | 0.00 | 71 | 1010.7 |
| 20260504014250 | 53 | 228 | 3.0 | 7.0 | 0.00 | 0.00 | 0.00 | 70 | 1010.7 |
| 20260504013749 | 53 | 211 | 4.0 | 9.0 | 0.00 | 0.00 | 0.00 | 71 | 1010.7 |
| 20260504013223 | 53 | 222 | 4.0 | 9.0 | 0.00 | 0.00 | 0.00 | 71 | 1010.7 |
| 20260504012718 | 53 | 213 | 3.0 | 9.0 | 0.00 | 0.00 | 0.00 | 71 | 1010.7 |
| 20260504012216 | 53 | 209 | 4.0 | 9.0 | 0.00 | 0.00 | 0.00 | 71 | 1010.7 |
| 20260504011650 | 53 | 238 | 4.0 | 8.0 | 0.00 | 0.00 | 0.00 | 70 | 1010.7 |
| 20260504011130 | 54 | 205 | 5.0 | 11.0 | 0.00 | 0.00 | 0.00 | 70 | 1010.7 |
| 20260504010621 | 54 | 206 | 5.0 | 11.0 | 0.00 | 0.00 | 0.00 | 70 | 1010.8 |
| 20260504010053 | 54 | 240 | 5.0 | 14.0 | 0.00 | 0.00 | 0.00 | 70 | 1010.9 |
| 20260504005526 | 54 | 228 | 6.0 | 14.0 | 0.00 | 0.00 | 0.00 | 70 | 1010.9 |
| 20260504005024 | 54 | 241 | 6.0 | 15.0 | 0.00 | 0.00 | 0.00 | 70 | 1011.0 |
| 20260504004500 | 54 | 256 | 5.0 | 15.0 | 0.00 | 0.00 | 0.00 | 71 | 1010.8 |
| 20260504003928 | 54 | 221 | 6.0 | 15.0 | 0.00 | 0.00 | 0.00 | 71 | 1010.8 |
| 20260504003429 | 54 | 246 | 7.0 | 17.0 | 0.00 | 0.00 | 0.00 | 71 | 1010.9 |
| 20260504002920 | 54 | 239 | 6.0 | 17.0 | 0.00 | 0.00 | 0.00 | 70 | 1010.8 |
| 20260504002417 | 55 | 249 | 6.0 | 15.0 | 0.00 | 0.00 | 0.00 | 70 | 1010.8 |
| 20260504001850 | 55 | 238 | 6.0 | 18.0 | 0.00 | 0.00 | 0.00 | 70 | 1010.8 |
| 20260504001349 | 56 | 283 | 7.0 | 18.0 | 0.00 | 0.00 | 0.00 | 70 | 1010.7 |
| 20260504000820 | 56 | 248 | 8.0 | 21.0 | 0.00 | 0.00 | 0.00 | 69 | 1010.7 |
| 20260504000318 | 56 | 246 | 8.0 | 21.0 | 0.00 | 0.00 | 0.00 | 68 | 1010.6 |
| 20260503235759 | 57 | 267 | 8.0 | 14.0 | 0.00 | 0.00 | 0.00 | 66 | 1010.5 |
| 20260503235224 | 57 | 274 | 7.0 | 15.0 | 0.00 | 0.00 | 0.00 | 64 | 1010.4 |
| 20260503234724 | 58 | 238 | 7.0 | 15.0 | 0.00 | 0.00 | 0.00 | 61 | 1010.4 |
| 20260503234224 | 59 | 254 | 6.0 | 14.0 | 0.00 | 0.00 | 0.00 | 52 | 1010.3 |
| 20260503233723 | 59 | 216 | 6.0 | 13.0 | 0.00 | 0.00 | 0.00 | 51 | 1010.3 |
| 20260503233223 | 60 | 242 | 6.0 | 15.0 | 0.00 | 0.00 | 0.00 | 50 | 1010.2 |
| 20260503232729 | 60 | 289 | 5.0 | 15.0 | 0.00 | 0.00 | 0.00 | 51 | 1010.2 |
| 20260503232223 | 60 | 256 | 6.0 | 12.0 | 0.00 | 0.00 | 0.00 | 52 | 1010.3 |
| 20260503231720 | 60 | 226 | 6.0 | 14.0 | 0.00 | 0.00 | 0.00 | 51 | 1010.3 |
| 20260503231155 | 60 | 221 | 6.0 | 13.0 | 0.00 | 0.00 | 0.00 | 51 | 1010.3 |
| 20260503230651 | 60 | 261 | 6.0 | 17.0 | 0.00 | 0.00 | 0.00 | 51 | 1010.3 |
| 20260503230124 | 60 | 283 | 7.0 | 17.0 | 0.00 | 0.00 | 0.00 | 49 | 1010.3 |
| 20260503225622 | 60 | 235 | 7.0 | 17.0 | 0.00 | 0.00 | 0.00 | 51 | 1010.4 |
| 20260503225054 | 60 | 234 | 7.0 | 17.0 | 0.00 | 0.00 | 0.00 | 49 | 1010.4 |
| 20260503224552 | 61 | 212 | 6.0 | 14.0 | 0.00 | 0.00 | 0.00 | 49 | 1010.4 |
| 20260503224025 | 62 | 308 | 5.0 | 12.0 | 0.00 | 0.00 | 0.00 | 50 | 1010.5 |
| 20260503223521 | 62 | 221 | 6.0 | 12.0 | 0.00 | 0.00 | 0.00 | 49 | 1010.5 |
| 20260503223019 | 62 | 226 | 7.0 | 17.0 | 0.00 | 0.00 | 0.00 | 49 | 1010.4 |
| 20260503222450 | 62 | 191 | 7.0 | 17.0 | 0.00 | 0.00 | 0.00 | 49 | 1010.6 |
| 20260503221948 | 62 | 262 | 7.0 | 12.0 | 0.00 | 0.00 | 0.00 | 48 | 1010.4 |
| 20260503221436 | 62 | 250 | 6.0 | 13.0 | 0.00 | 0.00 | 0.00 | 47 | 1010.5 |
| 20260503220935 | 62 | 247 | 6.0 | 16.0 | 0.00 | 0.00 | 0.00 | 48 | 1010.5 |
| 20260503220409 | 62 | 266 | 6.0 | 16.0 | 0.00 | 0.00 | 0.00 | 47 | 1010.5 |
| 20260503215906 | 62 | 242 | 7.0 | 17.0 | 0.00 | 0.00 | 0.00 | 49 | 1010.6 |
| 20260503215337 | 62 | 244 | 7.0 | 17.0 | 0.00 | 0.00 | 0.00 | 47 | 1010.7 |
| 20260503214838 | 62 | 212 | 7.0 | 17.0 | 0.00 | 0.00 | 0.00 | 47 | 1010.7 |
| 20260503214329 | 62 | 211 | 7.0 | 15.0 | 0.00 | 0.00 | 0.00 | 47 | 1010.6 |
| 20260503213804 | 63 | 231 | 6.0 | 14.0 | 0.00 | 0.00 | 0.00 | 47 | 1010.7 |
| 20260503213243 | 63 | 285 | 6.0 | 13.0 | 0.00 | 0.00 | 0.00 | 47 | 1010.6 |
| 20260503212733 | 63 | 220 | 6.0 | 10.0 | 0.00 | 0.00 | 0.00 | 48 | 1010.7 |
| 20260503212208 | 63 | 269 | 6.0 | 12.0 | 0.00 | 0.00 | 0.00 | 48 | 1010.7 |
| 20260503211644 | 63 | 239 | 6.0 | 21.0 | 0.00 | 0.00 | 0.00 | 49 | 1010.7 |
| 20260503211115 | 63 | 213 | 7.0 | 21.0 | 0.00 | 0.00 | 0.00 | 49 | 1010.8 |
| 20260503210616 | 63 | 244 | 7.0 | 17.0 | 0.00 | 0.00 | 0.00 | 47 | 1010.8 |
| 20260503210046 | 63 | 263 | 7.0 | 17.0 | 0.00 | 0.00 | 0.00 | 47 | 1010.8 |
| 20260503205523 | 63 | 211 | 6.0 | 14.0 | 0.00 | 0.00 | 0.00 | 48 | 1010.9 |
| 20260503204959 | 63 | 245 | 6.0 | 13.0 | 0.00 | 0.00 | 0.00 | 48 | 1010.9 |
| 20260503204457 | 63 | 265 | 6.0 | 13.0 | 0.00 | 0.00 | 0.00 | 48 | 1010.9 |
| 20260503203957 | 63 | 207 | 7.0 | 13.0 | 0.00 | 0.00 | 0.00 | 49 | 1010.9 |
| 20260503203449 | 63 | 251 | 7.0 | 16.0 | 0.00 | 0.00 | 0.00 | 47 | 1010.9 |
| 20260503202925 | 63 | 227 | 6.0 | 15.0 | 0.00 | 0.00 | 0.00 | 47 | 1011.1 |
| 20260503202405 | 63 | 196 | 6.0 | 15.0 | 0.00 | 0.00 | 0.00 | 49 | 1011.1 |
| 20260503201906 | 63 | 234 | 7.0 | 15.0 | 0.00 | 0.00 | 0.00 | 46 | 1011.0 |
| 20260503201338 | 63 | 211 | 6.0 | 15.0 | 0.00 | 0.00 | 0.00 | 49 | 1011.1 |
| 20260503200830 | 63 | 254 | 7.0 | 16.0 | 0.00 | 0.00 | 0.00 | 49 | 1011.1 |
| 20260503200329 | 64 | 213 | 7.0 | 16.0 | 0.00 | 0.00 | 0.00 | 48 | 1011.1 |
| 20260503195828 | 64 | 241 | 7.0 | 13.0 | 0.00 | 0.00 | 0.00 | 47 | 1011.2 |
| 20260503195329 | 63 | 195 | 7.0 | 14.0 | 0.00 | 0.00 | 0.00 | 47 | 1011.2 |
| 20260503194803 | 64 | 267 | 6.0 | 14.0 | 0.00 | 0.00 | 0.00 | 46 | 1011.3 |
| 20260503194258 | 63 | 280 | 7.0 | 14.0 | 0.00 | 0.00 | 0.00 | 46 | 1011.4 |
| 20260503193803 | 63 | 254 | 7.0 | 16.0 | 0.00 | 0.00 | 0.00 | 49 | 1011.5 |
| 20260503193259 | 63 | 224 | 8.0 | 18.0 | 0.00 | 0.00 | 0.00 | 46 | 1011.5 |
| 20260503192748 | 64 | 189 | 7.0 | 18.0 | 0.00 | 0.00 | 0.00 | 46 | 1011.6 |
| 20260503192245 | 64 | 219 | 7.0 | 15.0 | 0.00 | 0.00 | 0.00 | 47 | 1011.7 |
| 20260503191745 | 64 | 265 | 6.0 | 14.0 | 0.00 | 0.00 | 0.00 | 46 | 1011.7 |
| 20260503191248 | 63 | 193 | 6.0 | 14.0 | 0.00 | 0.00 | 0.00 | 48 | 1011.8 |
| 20260503190728 | 63 | 178 | 6.0 | 14.0 | 0.00 | 0.00 | 0.00 | 48 | 1012.0 |
| 20260503190207 | 63 | 230 | 7.0 | 17.0 | 0.00 | 0.00 | 0.00 | 46 | 1012.0 |
| 20260503185654 | 63 | 221 | 6.0 | 17.0 | 0.00 | 0.00 | 0.00 | 48 | 1012.0 |
| 20260503185151 | 63 | 221 | 6.0 | 15.0 | 0.00 | 0.00 | 0.00 | 52 | 1012.2 |
| 20260503184628 | 62 | 244 | 7.0 | 19.0 | 0.00 | 0.00 | 0.00 | 48 | 1012.2 |
| 20260503184102 | 62 | 252 | 8.0 | 19.0 | 0.00 | 0.00 | 0.00 | 48 | 1012.3 |
| 20260503183606 | 62 | 250 | 7.0 | 17.0 | 0.00 | 0.00 | 0.00 | 47 | 1012.4 |
| 20260503183041 | 62 | 249 | 6.0 | 16.0 | 0.00 | 0.00 | 0.00 | 49 | 1012.5 |
| 20260503182544 | 62 | 157 | 6.0 | 16.0 | 0.00 | 0.00 | 0.00 | 49 | 1012.5 |
| 20260503182022 | 62 | 254 | 7.0 | 16.0 | 0.00 | 0.00 | 0.00 | 48 | 1012.6 |
| 20260503181458 | 62 | 268 | 7.0 | 13.0 | 0.00 | 0.00 | 0.00 | 48 | 1012.6 |
| 20260503180934 | 62 | 261 | 6.0 | 16.0 | 0.00 | 0.00 | 0.00 | 48 | 1012.8 |
| 20260503180433 | 62 | 239 | 6.0 | 15.0 | 0.00 | 0.00 | 0.00 | 48 | 1012.8 |
| 20260503175929 | 62 | 221 | 6.0 | 15.0 | 0.00 | 0.00 | 0.00 | 49 | 1012.9 |
| 20260503175428 | 62 | 236 | 7.0 | 17.0 | 0.00 | 0.00 | 0.00 | 48 | 1013.0 |
| 20260503174906 | 62 | 244 | 6.0 | 17.0 | 0.00 | 0.00 | 0.00 | 51 | 1013.0 |
| 20260503174344 | 62 | 252 | 6.0 | 11.0 | 0.00 | 0.00 | 0.00 | 53 | 1013.0 |
| 20260503173813 | 62 | 226 | 6.0 | 14.0 | 0.00 | 0.00 | 0.00 | 51 | 1013.0 |
| 20260503173311 | 61 | 268 | 7.0 | 16.0 | 0.00 | 0.00 | 0.00 | 52 | 1013.2 |
| 20260503172807 | 61 | 253 | 6.0 | 16.0 | 0.00 | 0.00 | 0.00 | 56 | 1013.2 |
| 20260503172305 | 61 | 235 | 6.0 | 14.0 | 0.00 | 0.00 | 0.00 | 55 | 1013.3 |
| 20260503171740 | 60 | 218 | 6.0 | 14.0 | 0.00 | 0.00 | 0.00 | 56 | 1013.4 |
| 20260503171215 | 60 | 213 | 6.0 | 13.0 | 0.00 | 0.00 | 0.00 | 56 | 1013.5 |
| 20260503170647 | 60 | 214 | 6.0 | 16.0 | 0.00 | 0.00 | 0.00 | 57 | 1013.6 |
| 20260503170122 | 60 | 252 | 5.0 | 16.0 | 0.00 | 0.00 | 0.00 | 58 | 1013.6 |
| 20260503150543 | 54 | 270 | 6.0 | 14.0 | 0.00 | 0.00 | 0.00 | 61 | 1014.4 |
| 20260503140248 | 50 | 246 | 6.0 | 19.0 | 0.00 | 0.00 | 0.00 | 66 | 1014.7 |
| 20260503131104 | 48 | 248 | 5.0 | 9.0 | 0.00 | 0.00 | 0.00 | 67 | 1014.8 |
| 20260503130557 | 48 | 249 | 5.0 | 10.0 | 0.00 | 0.00 | 0.00 | 66 | 1014.9 |
| 20260503110612 | 41 | 217 | 4.0 | 8.0 | 0.00 | 0.00 | 0.00 | 74 | 1015.0 |
| 20260503110113 | 41 | 250 | 3.0 | 8.0 | 0.00 | 0.00 | 0.00 | 75 | 1015.0 |
| 20260503090209 | 41 | 273 | 3.0 | 5.0 | 0.00 | 0.01 | 0.00 | 78 | 1014.8 |
| 20260503081532 | 41 | 228 | 3.0 | 6.0 | 0.00 | 0.09 | 0.00 | 79 | 1014.9 |